Theta_e
323 324 324 325 326 327 327 327 327 327 331 330 327 327 337 337 338 340 342 343 342 340 339 338 337 336 335 335 332 333 328 338 342 343 344 342 341 338 339 335 336 336 335 336
326 324 325 325 325 325 326 327 327 329 328 329 329 332 334 337 338 338 340 341 342 339 336 335 334 332 332 332 332 326 324 328 336 336 330 335 336 335 335 334 333 327 330 328
325 326 325 324 324 324 325 326 328 329 331 329 332 332 335 338 338 338 339 339 340 338 336 333 332 330 328 329 328 323 317 318 322 330 331 331 331 328 327 327 327 326 325 325
325 326 325 324 323 324 325 326 327 328 331 330 332 331 336 337 339 340 339 338 338 337 334 332 330 328 326 325 326 319 319 322 318 325 320 318 323 324 323 323 323 325 320 317
325 326 324 324 325 326 328 327 326 327 327 328 330 328 327 335 338 338 338 338 337 335 332 330 329 327 325 324 325 321 318 317 316 316 319 321 321 321 321 321 320 320 320 319
327 325 326 326 326 326 327 326 326 326 326 326 328 328 328 332 337 336 337 337 337 334 330 330 328 327 325 323 324 324 319 318 317 317 316 314 314 317 320 321 320 319 319 319
326 326 325 326 326 326 326 327 328 329 329 328 328 327 327 330 330 329 329 337 337 334 330 329 328 327 325 324 323 323 323 321 320 318 316 314 313 316 317 320 319 319 318 318
327 326 326 326 326 327 327 327 328 330 330 330 330 330 330 333 332 330 330 329 334 333 329 328 326 327 327 325 322 322 324 324 323 322 318 314 321 320 319 316 320 319 319 320
327 328 327 326 326 326 326 327 327 328 329 330 329 329 333 332 332 331 331 332 333 331 328 327 327 328 326 325 323 323 324 324 324 323 322 321 319 315 317 319 320 320 319 319
328 329 327 326 325 325 325 327 329 328 330 330 329 329 329 333 330 332 332 331 329 328 327 327 327 327 326 327 326 324 324 324 324 323 323 322 322 321 321 321 321 321 321 320
327 329 329 327 326 326 328 327 327 329 330 331 331 329 329 328 328 332 332 332 330 328 327 327 327 327 328 327 326 325 323 324 324 323 323 322 321 321 321 321 321 321 321 321
326 328 329 328 328 327 328 329 330 331 332 330 331 331 330 329 328 330 331 331 331 329 329 328 327 327 327 327 325 325 324 323 323 323 322 322 322 322 322 322 321 322 322 321
328 329 329 329 330 329 327 327 327 329 330 331 332 329 330 329 328 327 328 329 331 330 330 329 328 328 327 326 326 325 325 324 323 322 322 321 321 321 322 321 320 321 320 320
329 331 329 329 329 329 331 329 328 329 330 330 329 329 329 330 328 327 328 327 328 330 330 330 329 329 329 328 327 327 326 325 324 324 322 320 320 320 319 319 316 314 315 315
329 332 328 328 328 327 328 329 328 328 329 330 329 328 327 326 328 327 326 326 326 326 327 328 331 330 330 329 329 327 326 325 324 323 322 321 321 319 317 316 316 314 314 314
329 332 331 329 328 328 327 326 326 326 327 327 327 327 325 325 325 325 325 326 326 327 328 329 329 329 329 328 328 327 326 324 324 323 321 319 317 316 314 313 313 313 312 310
330 331 330 330 328 328 330 328 327 327 327 327 326 326 326 327 326 326 325 326 327 326 326 326 326 325 325 324 324 325 325 322 321 319 317 316 315 314 313 313 312 312 312 312
330 331 329 328 329 331 327 326 326 325 325 325 325 326 326 325 324 325 326 326 325 325 325 325 324 324 322 322 322 321 320 319 318 317 315 314 313 312 312 311 310 309 309 308
328 329 329 332 328 327 325 326 325 325 325 324 325 326 325 323 326 326 325 324 324 325 325 324 323 322 320 320 319 318 317 316 315 314 313 312 310 310 310 309 308 307 307 307
327 329 329 328 331 331 327 326 325 325 327 325 324 325 324 325 328 327 324 324 325 324 323 322 321 320 319 318 317 316 315 314 313 311 310 309 309 309 308 306 306 306 305 305
329 329 331 328 331 327 325 325 324 327 325 325 324 324 324 327 326 325 324 324 324 323 322 320 320 319 318 317 315 314 313 312 311 310 309 308 307 306 306 306 304 305 305 306
331 330 331 329 331 330 324 325 325 327 326 324 323 324 325 325 326 325 325 324 323 322 320 319 318 317 315 314 313 312 311 310 309 309 307 307 306 305 305 304 305 306 305 305
331 329 330 328 327 326 325 325 325 325 326 324 323 324 324 325 324 324 324 322 321 320 319 317 315 314 313 312 312 311 310 309 308 307 307 306 306 305 304 304 304 305 304 303
327 326 329 328 327 325 326 325 324 324 324 324 323 324 323 324 323 323 322 321 320 318 316 314 313 312 311 310 309 309 308 307 307 308 307 306 305 303 302 303 303 302 302 300
326 326 328 328 326 324 324 325 324 325 323 324 323 323 323 322 322 322 321 319 318 316 314 313 312 311 310 308 308 307 306 306 306 307 307 306 304 304 304 303 303 301 301 299
325 326 328 329 324 324 324 324 324 324 323 323 323 322 322 322 321 320 319 317 316 314 313 312 310 309 308 307 306 306 306 305 306 306 305 303 304 305 304 303 302 302 300 300
Wind_Speed
14 11 13 16 14 17 11 4 11 8 8 8 13 17 13 12 13 15 14 13 12 10 8 8 8 9 9 9 8 9 8 9 7 2 3 2 3 6 7 10 7 9 11 11
8 13 15 14 8 10 11 8 10 7 3 7 10 13 5 12 15 14 17 16 14 11 11 9 10 10 9 9 9 9 10 11 9 6 5 5 5 3 3 5 9 9 10 11
15 3 4 4 9 12 15 14 9 7 9 11 7 15 15 16 16 14 14 14 14 14 13 11 11 10 9 9 10 10 11 11 10 10 7 8 8 6 4 6 6 12 11 12
11 6 6 11 14 13 14 9 5 2 9 12 12 13 17 19 16 17 17 15 14 14 13 12 12 11 10 10 10 11 11 11 9 10 9 7 7 4 5 6 8 7 12 12
8 6 10 12 12 9 8 5 8 9 11 14 11 8 12 19 14 16 19 20 17 16 14 13 13 12 11 10 10 10 11 11 12 12 10 7 7 6 6 5 9 12 12 14
2 2 9 5 5 3 5 6 8 12 13 14 17 16 13 9 17 19 25 19 17 16 16 15 14 14 13 11 10 9 9 10 10 10 10 9 7 6 5 7 6 7 7 9
9 12 9 5 9 7 10 9 9 12 12 14 5 5 11 8 5 5 2 16 17 18 18 18 17 16 14 12 11 9 8 7 7 8 8 8 8 9 8 7 7 8 7 9
11 13 12 12 14 9 16 14 11 14 10 6 9 5 4 9 5 2 2 10 14 19 20 19 18 16 15 13 12 10 8 7 6 5 5 6 7 4 5 6 5 6 6 8
7 8 9 5 9 7 13 8 9 10 14 12 14 15 10 9 4 1 5 8 13 18 20 20 20 17 16 14 13 11 10 9 7 5 3 2 3 4 1 4 6 4 6 6
5 8 11 9 7 9 12 8 6 10 13 15 13 8 8 11 5 5 6 9 14 17 19 19 18 17 15 13 12 12 11 9 7 6 4 2 2 1 1 2 4 5 7 9
9 7 4 6 11 15 9 12 12 11 10 10 10 7 4 5 1 2 7 10 14 18 19 19 18 17 16 14 13 12 11 10 8 6 5 5 4 4 4 5 6 9 10 11
15 6 12 15 5 5 9 12 10 10 11 12 11 11 8 2 4 6 8 10 12 16 17 18 17 16 15 15 13 12 10 9 8 7 7 6 6 7 7 9 11 13 15 13
10 9 12 17 12 10 13 17 13 13 11 15 14 13 8 7 5 7 11 13 14 17 17 16 15 15 15 14 13 12 11 10 9 9 8 8 8 9 10 12 13 16 17 16
4 12 15 14 16 1 16 17 16 14 13 15 17 18 9 12 8 7 9 9 9 11 20 20 18 15 16 15 14 13 12 10 9 7 7 8 8 10 12 12 16 22 23 25
6 15 18 20 21 21 13 14 16 17 18 20 19 21 18 8 6 11 12 6 8 11 13 11 9 9 5 6 7 8 7 7 5 4 6 9 8 9 12 13 14 16 17 19
9 11 16 20 18 20 17 21 20 20 22 22 21 22 17 14 16 14 7 7 11 5 6 6 8 7 5 4 3 4 4 3 1 1 7 10 7 5 10 12 14 16 17 20
15 10 14 18 18 22 24 18 20 22 23 23 21 17 7 6 6 9 10 8 10 12 12 11 12 11 10 7 5 5 2 2 3 3 5 2 5 7 10 12 14 13 16 18
15 15 13 16 16 24 19 14 15 16 17 17 19 17 14 5 7 7 10 15 15 14 13 12 11 10 9 7 5 3 4 6 5 1 1 5 8 10 12 13 14 17 18 18
13 13 15 14 16 19 16 9 12 15 18 17 17 9 8 6 10 11 12 16 15 13 10 10 10 9 8 6 5 4 2 1 0 3 6 7 9 12 14 15 16 17 18 17
14 12 13 15 19 22 15 12 15 11 17 19 19 13 10 14 11 11 18 15 14 13 12 11 10 8 6 4 4 2 1 2 1 3 6 10 12 13 14 15 16 18 19 18
14 15 18 15 16 21 13 6 7 12 9 4 18 14 15 12 2 26 21 17 14 13 11 9 7 5 4 3 2 2 2 1 4 7 9 9 10 12 14 15 18 17 18 16
16 8 17 15 20 26 17 15 15 4 2 5 9 14 17 14 15 18 18 16 14 12 10 7 6 5 5 4 3 1 1 2 7 6 7 8 9 12 12 16 16 14 15 14
17 15 14 14 12 11 8 20 19 14 9 10 12 16 18 18 17 17 16 15 13 10 8 7 7 6 4 2 0 2 1 6 6 5 4 7 11 11 11 12 12 14 13 16
21 27 14 14 19 18 8 13 13 18 15 13 14 18 19 19 17 17 15 14 11 10 8 8 7 6 5 1 3 3 3 4 6 6 5 6 8 8 9 9 10 12 13 18
15 21 17 19 17 13 23 19 20 18 16 16 16 18 18 21 20 18 15 13 11 10 9 8 6 5 3 2 2 4 6 6 6 4 3 4 4 4 7 8 8 10 12 17
17 16 9 13 23 21 16 18 20 19 19 17 19 18 17 19 18 16 15 12 11 11 10 8 6 4 4 3 4 4 4 4 3 2 1 2 3 5 6 7 11 8 10 14
Wind_Direction
197 227 218 225 232 263 320 228 262 206 89 282 239 235 165 183 205 191 190 185 177 163 153 139 127 115 104 96 91 87 86 79 98 100 111 58 78 30 4 333 342 341 336 324
198 230 250 229 246 249 256 247 238 65 307 256 246 262 179 193 214 208 204 192 182 170 163 150 137 126 115 106 96 91 85 90 90 85 72 73 70 38 51 13 1 355 355 347
240 220 152 237 220 235 234 243 227 253 165 233 249 237 196 213 212 207 205 198 188 185 174 163 150 136 125 112 101 98 92 84 87 90 43 29 32 39 23 3 5 342 6 3
235 111 214 220 227 220 228 229 338 239 234 249 196 272 176 195 201 192 198 205 192 187 182 173 160 146 134 119 110 109 105 89 82 83 74 94 54 43 29 11 350 4 359 359
204 180 205 214 221 203 45 119 226 253 267 279 215 240 285 171 202 204 204 198 200 192 188 181 169 156 143 131 125 119 103 92 81 76 85 69 82 40 26 25 22 15 5 358
248 243 210 241 117 199 51 240 235 251 253 252 243 250 254 203 199 204 190 197 196 191 192 187 174 163 154 149 142 131 113 94 81 65 55 49 56 67 58 31 30 14 10 6
192 202 204 244 192 201 225 233 241 234 230 236 145 214 256 104 58 351 335 180 190 196 193 188 181 172 166 162 154 145 129 111 91 72 57 52 59 61 43 56 17 25 7 10
198 189 186 204 244 238 202 245 263 285 282 294 139 249 221 82 111 12 250 264 195 193 197 194 189 180 174 171 169 165 155 141 132 103 67 61 92 67 49 24 36 14 11 350
279 219 112 181 232 264 261 238 286 298 282 275 284 271 143 135 136 170 237 218 193 193 195 193 187 185 183 180 177 173 173 169 160 144 123 96 100 146 39 29 47 338 345 347
280 270 172 157 231 230 262 331 230 218 256 262 268 279 335 152 183 167 223 202 191 195 195 193 190 191 191 191 191 185 185 186 182 173 173 182 204 182 308 334 323 323 324 329
238 240 222 164 208 237 184 230 241 277 303 301 288 283 60 349 340 194 211 195 197 199 200 196 201 201 200 201 203 199 197 198 203 204 214 217 226 252 275 297 304 303 303 309
225 252 250 226 236 273 302 289 252 241 245 244 259 267 33 241 257 190 220 211 209 206 208 209 206 207 212 213 216 214 212 217 227 228 231 243 259 267 279 289 292 296 292 296
208 215 248 252 189 212 236 240 249 264 271 267 278 283 148 166 233 237 248 237 205 207 219 217 225 223 225 229 231 234 233 239 238 245 254 264 272 272 281 281 289 299 302 303
328 233 247 254 266 313 210 244 241 234 253 260 262 276 233 181 197 226 222 242 256 209 216 226 215 221 230 231 236 235 241 243 240 244 263 265 263 268 290 291 286 288 287 300
233 243 247 251 261 275 267 248 221 238 251 260 276 282 289 304 204 213 226 231 263 252 262 255 225 241 179 199 209 238 244 237 226 213 242 241 241 270 296 310 313 316 313 301
214 252 255 263 256 261 257 268 264 262 268 266 259 267 276 277 275 261 251 244 252 204 161 152 139 146 144 127 148 200 221 194 87 299 295 294 303 348 330 332 329 322 316 314
228 247 248 253 262 265 255 233 260 267 266 268 265 267 290 306 262 272 252 218 156 137 143 138 126 123 120 118 120 120 113 296 275 118 117 68 340 326 320 316 319 324 325 321
219 238 250 259 254 253 272 284 287 275 278 274 261 257 264 286 269 211 179 153 147 150 154 144 131 125 117 119 122 107 99 109 119 100 354 320 322 323 330 328 323 322 319 319
242 240 250 246 251 260 255 191 237 247 263 259 263 262 236 220 177 157 163 156 158 148 146 141 135 127 121 119 115 120 120 155 314 312 320 337 332 323 321 323 323 325 323 322
208 242 256 244 252 252 266 285 316 222 261 253 253 222 211 184 198 171 163 152 149 153 151 140 134 126 118 115 113 128 194 297 338 354 328 328 331 326 330 330 328 324 317 314
221 222 228 239 256 263 260 156 153 222 276 326 215 202 196 189 329 136 153 155 156 153 145 140 143 147 144 147 102 116 116 359 326 328 328 327 328 335 338 327 326 319 323 324
204 223 236 233 250 256 254 190 203 345 135 189 182 185 179 153 142 147 153 154 154 150 142 145 149 153 146 133 121 177 279 303 322 322 339 338 341 336 332 331 330 335 335 342
256 205 227 245 247 251 274 212 211 235 232 196 187 178 181 159 164 163 159 159 160 157 161 168 161 152 149 133 213 281 263 302 310 323 327 343 338 341 339 353 344 344 350 350
236 246 247 248 257 258 216 214 221 207 218 199 196 186 191 171 175 168 166 167 168 167 171 173 172 164 161 187 297 290 288 290 297 302 319 335 347 21 4 357 355 352 348 346
261 272 225 259 243 240 227 224 210 205 210 198 203 192 188 172 167 167 173 172 174 173 176 177 180 180 196 232 260 292 287 276 284 288 327 359 6 337 348 342 345 356 345 6
268 274 196 232 237 219 223 219 217 210 208 203 190 188 182 171 164 171 173 176 175 172 171 173 177 186 203 228 261 276 283 272 270 271 342 41 343 324 326 336 330 321 344 354